Regional Weather Roundup
Issued by NWS Mt. Holly, NJ

Home | Current Version | Previous Version | Text Only | Print | Product List | Glossary On
Versions: 1 2 3 4 5 6 7 8 9 10 11 12 13 14 15 16 17 18 19 20 21 22 23 24 25 26 27 28 29 30 31 32 33 34 35 36 37 38 39 40 41 42 43 44 45 46 47 48 49 50
000
ASUS41 KPHI 010612
RWRPHI

REGIONAL WEATHER ROUNDUP
NATIONAL WEATHER SERVICE MOUNT HOLLY NJ
200 AM EDT MON MAY 01 2017

NOTE:  "FAIR" INDICATES FEW OR NO CLOUDS BELOW 12,000 FEET WITH NO
SIGNIFICANT WEATHER AND/OR OBSTRUCTIONS TO VISIBILITY.

 * = STATION DOES NOT REPORT PRECIPITATION (E.G. RAIN, SNOW, ETC.)
        OR FOG.

NJZ015>026-010700-
SOUTHERN NEW JERSEY

CITY           SKY/WX    TMP DP  RH WIND       PRES   REMARKS
POMONA         FOG       55  32  41 NE7       30.06F VSB 1/2
6HR MIN TEMP:  52; 6HR MAX TEMP:  55;

WILDWOOD*      FOG       56  56 100 E3        30.05F VSB 1/2
MILLVILLE      CLOUDY    53  53 100 E5        30.05F FOG
WRIGHTSTOWN    CLOUDY    50  49  97 NE7       30.05F FOG
MOUNT HOLLY    FOG       50  50 100 E5        30.08F VSB 1
TRENTON        CLOUDY    50  50 100 E8        30.08F FOG
6HR MIN TEMP:  50; 6HR MAX TEMP:  53;


$$
NJZ001>014-010700-
NORTHERN NEW JERSEY

CITY           SKY/WX    TMP DP  RH WIND       PRES   REMARKS
SUSSEX         CLOUDY    52  45  77 SE3       30.11F
ANDOVER*         N/A     50  45  83 SE3       30.09F
MORRISTOWN     CLOUDY    52  46  82 E3        30.11F
NEWARK         CLOUDY    51  49  92 NE7       30.11F FOG
TETERBORO      CLOUDY    50  46  86 E8        30.11F
CALDWELL       CLOUDY    51  45  79 E8        30.12F
SOMERVILLE     CLOUDY    50  48  93 E6        30.09F
ALLAIRE*       LGT RAIN  50  49  96 NE7       30.09F FOG
TOMS RIVER*    LGT RAIN  52  52 100 NE5       30.08F FOG

$$
PAZ043-044-047-054-055-060>062-066>071-010700-
EASTERN PENNSYLVANIA

CITY           SKY/WX    TMP DP  RH WIND       PRES   REMARKS
PHILADELPHIA   CLOUDY    52  50  93 NE7       30.07F
6HR MIN TEMP:  52; 6HR MAX TEMP:  56;

NORTH PHILA    CLOUDY    52  50  93 E9        30.09F FOG
BLUE BELL*     CLOUDY    48  48 100 E7        30.08F
DOYLESTOWN     CLOUDY    49  49 100 CALM      30.07F
QUAKERTOWN*    CLOUDY    50  50 100 E5        30.08F
PERKASIE*      CLOUDY    48  48 100 E6        30.08F FOG
POTTSTOWN      CLOUDY    49  49 100 VRB6      30.08F FOG
LANCASTER      CLOUDY    54  52  93 E8        30.04F
COATESVILLE    FOG       52  52 100 E8G15     30.06F VSB 1/2
READING        CLOUDY    52  51  97 CALM      30.05F
6HR MIN TEMP:  52; 6HR MAX TEMP:  62;

ALLENTOWN      CLOUDY    51  46  83 E9        30.08F
6HR MIN TEMP:  51; 6HR MAX TEMP:  55;

MOUNT POCONO   FOG       44  44 100 SE7       30.06F VSB 3/4
6HR MIN TEMP:  44; 6HR MAX TEMP:  49;

HAZLETON       CLOUDY    46  46 100 SE7G17    30.05F FOG
LEHIGHTON      CLOUDY    50  46  87 E6        30.08F
WILKES BARRE   CLOUDY    54  49  83 VRB5      30.02F

$$
DEZALL-MDZ008-012-015-019-020-010700-
DELAWARE AND EASTERN MARYLAND

CITY           SKY/WX    TMP DP  RH WIND       PRES   REMARKS
WILMINGTON     CLOUDY    53  52  96 E9        30.06F
6HR MIN TEMP:  53; 6HR MAX TEMP:  61;

DOVER          FOG       57  57 100 E3        30.04F VSB 3/4
GEORGETOWN     CLOUDY    58  56  93 E5        30.05F FOG
6HR MIN TEMP:  58; 6HR MAX TEMP:  66;

EASTON         CLEAR     60  58  91 E5        30.06F FOG
ABERDEEN       CLOUDY    56  54  93 E5        30.04F
PATUXENT       MOCLDY    76  69  79 S13       30.01F
OCEAN CITY     CLOUDY    73  67  81 SW14      30.05F
WALLOPS ISLAND PTCLDY    68  67  96 S13       30.05F
CAMBRIDGE      PTCLDY    64  61  88 E3        30.02F
SALISBURY      CLOUDY    70  67  90 CALM      30.03F

$$
PAZ001-021-NYZ056-072-MDZ011-DCZ001-010700-
OTHER NEARBY LOCATIONS

CITY           SKY/WX    TMP DP  RH WIND       PRES   REMARKS
HARRISBURG     CLOUDY    57  52  83 E9        30.02F
STATE COLLEGE  CLEAR     62  54  76 SW6       29.96F
WILLIAMSPORT   CLOUDY    59  47  64 NE16G24   29.97F
BINGHAMTON     CLEAR     53  47  79 S10       29.96F
NEW YORK CITY  CLOUDY    50  48  93 VRB5      30.14F
BALTIMORE      CLOUDY    59  57  93 E10       30.02F
WASHINGTON DC  MOCLDY    66  63  90 NE8       30.01F

$$



USA.gov is the U.S. government's official web portal to all federal, state and local government web resources and services.